Tracking 27107 objects as of 21-Mar-2023
HD Live streaming from Space Station
objects crossing your sky now

STARLINK-3523

Track STARLINK-3523 now!
10-day predictions
STARLINK-3523 is classified as:


NORAD ID: 51729
Int'l Code: 2022-016R
Perigee: 544.0 km
Apogee: 549.7 km
Inclination: 53.2 °
Period: 95.4 minutes
Semi major axis: 6917 km
RCS: Unknown
Launch date: February 21, 2022
Source: United States (US)
Launch site: AIR FORCE EASTERN TEST RANGE (AFETR)
Your satellite tracking list
Your tracking list is empty




NASA's NSSDC Master Catalog

Two Line Element Set (TLE):
1 51729U 22016R   23079.60663100 -.00000196  00000-0  58383-5 0  9997
2 51729  53.2157 150.2629 0004084  10.1801 349.9273 15.08842735 59757
Source of the keplerian elements: AFSPC